Regional Weather Roundup
Issued by NWS

Home | Current Version | Previous Version | Text Only | Print | Product List | Glossary Off
Versions: 1 2 3 4 5 6 7 8 9 10 11 12 13 14 15 16 17 18 19 20 21 22 23 24 25 26 27 28 29 30 31 32 33 34 35 36 37 38 39 40 41 42 43 44 45 46 47 48 49 50

777
ASUS43 KLMK 220610
RWRKY
KENTUCKY REGIONAL WEATHER ROUNDUP
NATIONAL WEATHER SERVICE LOUISVILLE KY
200 AM EDT FRI SEP 22 2017

NOTE "FAIR" INDICATES FEW OR NO CLOUDS BELOW 12,000 FEET
WITH NO SIGNIFICANT WEATHER AND/OR OBSTRUCTIONS TO VISIBILITY.

KYZ001>023-026-027-061>063-070>075-220700-
WESTERN AND SOUTH CENTRAL KENTUCKY

CITY           SKY/WX    TMP DP  RH WIND       PRES   REMARKS
PADUCAH        CLEAR     71  69  93 CALM      30.03S
HENDERSON      CLEAR     70  68  93 CALM      30.05S
OWENSBORO      CLEAR     72  70  93 CALM      30.05S
HOPKINSVILLE   CLEAR     70  70 100 CALM      30.05S FOG
BOWLING GREEN  CLEAR     71  70  96 CALM      30.06S
GLASGOW        CLEAR    N/A N/A N/A CALM      30.08S HAZE
$$

KYZ024-025-028>034-038-045-046-053-220700-
NORTH CENTRAL KENTUCKY

CITY           SKY/WX    TMP DP  RH WIND       PRES   REMARKS
LOUISVILLE/SDF CLEAR     76  70  82 CALM      30.07R
LOUISVILLE/LOU CLEAR     72  71  97 CALM      30.08R
FORT KNOX      FOG       69  69 100 CALM      30.06S VSB 1/2
$$

KYZ035>037-039>044-047>052-055>060-089>105-220700-
NORTHEAST KENTUCKY

CITY           SKY/WX    TMP DP  RH WIND       PRES   REMARKS
LEXINGTON      CLEAR     69  65  86 SE3       30.10S
COVINGTON      PTCLDY    74  69  85 S3        30.09R
FRANKFORT      PTCLDY    69  66  90 CALM      30.08R
$$

KYZ054-064>069-076>088-106>120-220700-
SOUTHEAST KENTUCKY

CITY           SKY/WX    TMP DP  RH WIND       PRES   REMARKS
JACKSON        CLEAR     69  66  90 CALM      30.11F
LONDON         CLEAR     66  64  93 CALM      30.10S
SOMERSET       CLEAR     64  64 100 CALM      30.10S
MIDDLESBORO    MOCLDY    64  64 100 CALM      30.12S
MONTICELLO     CLEAR     62  61  96 W8        30.10F FOG
$$





USA.gov is the U.S. government's official web portal to all federal, state and local government web resources and services.